Time,TemperatureF,DewpointF,PressureIn,WindDirection,WindDirectionDegrees,WindSpeedMPH,WindSpeedGustMPH,Humidity,HourlyPrecipIn,Conditions,Clouds,dailyrainin,SolarRadiationWatts/m^2,SoftwareType,DateUTC
2013-02-23 00:03:00,70.0,67.0,-100.00,SSW,201,3.0,-999.0,92,0.00,,,-99.99,0.000000,,2013-02-23 05:03:00,
2013-02-23 00:12:00,69.0,68.0,-100.00,SSW,198,3.0,-999.0,94,0.00,,,-99.99,0.000000,,2013-02-23 05:12:00,
2013-02-23 00:22:00,69.0,68.0,-100.00,SSW,198,3.0,-999.0,94,0.00,,,-99.99,0.000000,,2013-02-23 05:22:00,
2013-02-23 00:32:00,69.0,68.0,-100.00,SSW,210,3.0,-999.0,94,0.00,,,-99.99,0.000000,,2013-02-23 05:32:00,
2013-02-23 00:42:00,69.0,68.0,-100.00,South,183,3.0,-999.0,95,0.00,,,-99.99,0.000000,,2013-02-23 05:42:00,
2013-02-23 00:52:00,69.0,68.0,-100.00,South,183,3.0,-999.0,95,0.00,,,-99.99,0.000000,,2013-02-23 05:52:00,
2013-02-23 01:01:00,70.0,68.0,-100.00,SSE,150,4.0,-999.0,95,0.00,,,-99.99,0.000000,,2013-02-23 06:01:00,
2013-02-23 01:11:00,70.0,68.0,-100.00,SE,144,3.0,-999.0,95,0.00,,,-99.99,0.000000,,2013-02-23 06:11:00,
2013-02-23 01:22:00,70.0,68.0,-100.00,SE,144,3.0,-999.0,95,0.00,,,-99.99,0.000000,,2013-02-23 06:22:00,
2013-02-23 01:32:00,70.0,68.0,-100.00,SSE,157,5.0,-999.0,96,0.00,,,-99.99,0.000000,,2013-02-23 06:32:00,
2013-02-23 01:42:00,70.0,68.0,-100.00,SSE,163,6.0,-999.0,96,0.00,,,-99.99,0.000000,,2013-02-23 06:42:00,
2013-02-23 01:52:00,70.0,68.0,-100.00,SSE,163,6.0,-999.0,96,0.00,,,-99.99,0.000000,,2013-02-23 06:52:00,
2013-02-23 02:01:00,69.0,68.0,-100.00,SSE,168,6.0,-999.0,95,0.00,,,-99.99,0.000000,,2013-02-23 07:01:00,
2013-02-23 02:11:00,69.0,68.0,-100.00,South,170,6.0,-999.0,95,0.00,,,-99.99,0.000000,,2013-02-23 07:11:00,
2013-02-23 02:21:00,69.0,68.0,-100.00,South,170,6.0,-999.0,95,0.00,,,-99.99,0.000000,,2013-02-23 07:21:00,
2013-02-23 02:32:00,69.0,68.0,-100.00,South,169,6.0,-999.0,95,0.00,,,-99.99,0.000000,,2013-02-23 07:32:00,
2013-02-23 02:42:00,69.0,68.0,-100.00,South,182,7.0,-999.0,95,0.00,,,-99.99,0.000000,,2013-02-23 07:42:00,
2013-02-23 02:52:00,69.0,68.0,-100.00,South,182,7.0,-999.0,95,0.00,,,-99.99,0.000000,,2013-02-23 07:52:00,
2013-02-23 03:01:00,70.0,68.0,-100.00,South,177,6.0,-999.0,95,0.00,,,-99.99,0.000000,,2013-02-23 08:01:00,
2013-02-23 03:11:00,70.0,68.0,-100.00,South,174,7.0,-999.0,95,0.00,,,-99.99,0.000000,,2013-02-23 08:11:00,
2013-02-23 03:21:00,70.0,68.0,-100.00,South,174,7.0,-999.0,95,0.00,,,-99.99,0.000000,,2013-02-23 08:21:00,
2013-02-23 03:31:00,70.0,68.0,-100.00,South,175,8.0,-999.0,95,0.00,,,-99.99,0.000000,,2013-02-23 08:31:00,
2013-02-23 03:42:00,70.0,68.0,-100.00,South,178,7.0,-999.0,95,0.00,,,-99.99,0.000000,,2013-02-23 08:42:00,
2013-02-23 03:53:00,70.0,68.0,-100.00,South,178,7.0,-999.0,95,0.00,,,-99.99,0.000000,,2013-02-23 08:53:00,
2013-02-23 04:01:00,70.0,68.0,-100.00,South,177,8.0,-999.0,95,0.00,,,-99.99,0.000000,,2013-02-23 09:01:00,
2013-02-23 04:11:00,70.0,68.0,-100.00,South,179,10.0,-999.0,95,0.00,,,-99.99,0.000000,,2013-02-23 09:11:00,
2013-02-23 04:21:00,70.0,68.0,-100.00,South,179,10.0,-999.0,95,0.00,,,-99.99,0.000000,,2013-02-23 09:21:00,
2013-02-23 04:32:00,70.0,68.0,-100.00,South,181,9.0,-999.0,95,0.00,,,-99.99,0.000000,,2013-02-23 09:32:00,
2013-02-23 04:42:00,70.0,68.0,-100.00,South,175,9.0,-999.0,95,0.00,,,-99.99,0.000000,,2013-02-23 09:42:00,
2013-02-23 04:52:00,70.0,68.0,-100.00,South,175,9.0,-999.0,95,0.00,,,-99.99,0.000000,,2013-02-23 09:52:00,
2013-02-23 05:01:00,70.0,68.0,-100.00,South,178,8.0,-999.0,95,0.00,,,-99.99,0.000000,,2013-02-23 10:01:00,
2013-02-23 05:11:00,70.0,68.0,-100.00,South,182,9.0,-999.0,95,0.00,,,-99.99,0.000000,,2013-02-23 10:11:00,
2013-02-23 05:21:00,70.0,68.0,-100.00,South,182,9.0,-999.0,95,0.00,,,-99.99,0.000000,,2013-02-23 10:21:00,
2013-02-23 05:32:00,70.0,68.0,-100.00,South,181,8.0,-999.0,95,0.00,,,-99.99,0.000000,,2013-02-23 10:32:00,
2013-02-23 05:42:00,70.0,68.0,-100.00,South,181,8.0,-999.0,95,0.00,,,-99.99,0.000000,,2013-02-23 10:42:00,
2013-02-23 05:52:00,70.0,68.0,-100.00,South,181,8.0,-999.0,95,0.00,,,-99.99,0.000000,,2013-02-23 10:52:00,
2013-02-23 06:02:00,70.0,68.0,-100.00,South,183,8.0,-999.0,94,0.00,,,-99.99,0.000000,,2013-02-23 11:02:00,
2013-02-23 06:11:00,70.0,68.0,-100.00,South,186,8.0,-999.0,94,0.00,,,-99.99,0.000000,,2013-02-23 11:11:00,
2013-02-23 06:22:00,70.0,68.0,-100.00,South,186,8.0,-999.0,94,0.00,,,-99.99,0.000000,,2013-02-23 11:22:00,
2013-02-23 06:32:00,70.0,68.0,-100.00,South,191,8.0,-999.0,95,0.00,,,-99.99,0.000000,,2013-02-23 11:32:00,
2013-02-23 06:42:00,69.0,68.0,-100.00,South,190,9.0,-999.0,94,0.00,,,-99.99,0.000000,,2013-02-23 11:42:00,
2013-02-23 06:52:00,69.0,68.0,-100.00,South,190,9.0,-999.0,94,0.00,,,-99.99,0.000000,,2013-02-23 11:52:00,
2013-02-23 07:02:00,69.0,68.0,-100.00,South,184,10.0,-999.0,94,0.00,,,-99.99,0.200000,,2013-02-23 12:02:00,
2013-02-23 07:11:00,69.0,68.0,-100.00,South,182,12.0,-999.0,94,0.00,,,-99.99,2.800000,,2013-02-23 12:11:00,
2013-02-23 07:21:00,69.0,68.0,-100.00,South,182,12.0,-999.0,94,0.00,,,-99.99,2.800000,,2013-02-23 12:21:00,
2013-02-23 07:32:00,69.0,68.0,-100.00,South,183,11.0,-999.0,94,0.00,,,-99.99,10.800000,,2013-02-23 12:32:00,
2013-02-23 07:42:00,69.0,68.0,-100.00,South,179,9.0,-999.0,94,0.00,,,-99.99,44.500000,,2013-02-23 12:42:00,
2013-02-23 07:52:00,69.0,68.0,-100.00,South,179,9.0,-999.0,94,0.00,,,-99.99,44.500000,,2013-02-23 12:52:00,
2013-02-23 08:01:00,69.0,68.0,-100.00,South,179,9.0,-999.0,94,0.00,,,-99.99,44.500000,,2013-02-23 13:01:00,
2013-02-23 08:12:00,70.0,68.0,-100.00,South,184,10.0,-999.0,93,0.00,,,-99.99,79.400002,,2013-02-23 13:12:00,
2013-02-23 08:22:00,70.0,68.0,-100.00,South,184,10.0,-999.0,93,0.00,,,-99.99,79.400002,,2013-02-23 13:22:00,
2013-02-23 08:32:00,71.0,68.0,-100.00,South,187,9.0,-999.0,93,0.00,,,-99.99,112.699997,,2013-02-23 13:32:00,
2013-02-23 08:42:00,71.0,69.0,-100.00,South,188,11.0,-999.0,92,0.00,,,-99.99,140.500000,,2013-02-23 13:42:00,
2013-02-23 08:52:00,71.0,69.0,-100.00,South,188,11.0,-999.0,92,0.00,,,-99.99,140.500000,,2013-02-23 13:52:00,
2013-02-23 09:02:00,71.0,69.0,-100.00,South,188,9.0,-999.0,91,0.00,,,-99.99,130.500000,,2013-02-23 14:02:00,
2013-02-23 09:11:00,72.0,69.0,-100.00,SSW,192,10.0,-999.0,90,0.00,,,-99.99,207.399994,,2013-02-23 14:11:00,
2013-02-23 09:21:00,72.0,69.0,-100.00,SSW,192,10.0,-999.0,90,0.00,,,-99.99,207.399994,,2013-02-23 14:21:00,
2013-02-23 09:32:00,73.0,69.0,-100.00,SSW,197,12.0,-999.0,88,0.00,,,-99.99,218.800003,,2013-02-23 14:32:00,
2013-02-23 09:42:00,74.0,70.0,-100.00,SSW,197,11.0,-999.0,87,0.00,,,-99.99,245.199997,,2013-02-23 14:42:00,
2013-02-23 09:52:00,74.0,70.0,-100.00,SSW,197,11.0,-999.0,87,0.00,,,-99.99,245.199997,,2013-02-23 14:52:00,
2013-02-23 10:02:00,74.0,69.0,-100.00,SSW,199,11.0,-999.0,86,0.00,,,-99.99,226.199997,,2013-02-23 15:02:00,
2013-02-23 10:11:00,74.0,70.0,-100.00,SSW,197,12.0,-999.0,85,0.00,,,-99.99,311.000000,,2013-02-23 15:11:00,
2013-02-23 10:22:00,74.0,70.0,-100.00,SSW,197,12.0,-999.0,85,0.00,,,-99.99,311.000000,,2013-02-23 15:22:00,
2013-02-23 10:32:00,76.0,70.0,-100.00,SSW,197,13.0,-999.0,81,0.00,,,-99.99,548.099976,,2013-02-23 15:32:00,
2013-02-23 10:42:00,78.0,70.0,-100.00,SSW,194,15.0,-999.0,76,0.00,,,-99.99,694.599976,,2013-02-23 15:42:00,
2013-02-23 10:52:00,78.0,70.0,-100.00,SSW,194,15.0,-999.0,76,0.00,,,-99.99,694.599976,,2013-02-23 15:52:00,
2013-02-23 11:01:00,78.0,69.0,-100.00,SSW,207,11.0,-999.0,75,0.00,,,-99.99,526.299988,,2013-02-23 16:01:00,
2013-02-23 11:11:00,78.0,68.0,-100.00,SSW,197,15.0,-999.0,71,0.00,,,-99.99,607.700012,,2013-02-23 16:11:00,
2013-02-23 11:21:00,78.0,68.0,-100.00,SSW,197,15.0,-999.0,71,0.00,,,-99.99,607.700012,,2013-02-23 16:21:00,
2013-02-23 11:31:00,80.0,69.0,-100.00,SSW,197,14.0,-999.0,67,0.00,,,-99.99,780.000000,,2013-02-23 16:31:00,
2013-02-23 11:42:00,80.0,68.0,-100.00,SSW,208,12.0,-999.0,67,0.00,,,-99.99,664.700012,,2013-02-23 16:42:00,
2013-02-23 11:52:00,80.0,68.0,-100.00,SSW,208,12.0,-999.0,67,0.00,,,-99.99,664.700012,,2013-02-23 16:52:00,
2013-02-23 12:01:00,81.0,68.0,-100.00,SSW,208,11.0,-999.0,64,0.00,,,-99.99,631.500000,,2013-02-23 17:01:00,
2013-02-23 12:11:00,81.0,68.0,-100.00,SSW,212,12.0,-999.0,63,0.00,,,-99.99,635.000000,,2013-02-23 17:11:00,
2013-02-23 12:21:00,81.0,68.0,-100.00,SSW,212,12.0,-999.0,63,0.00,,,-99.99,635.000000,,2013-02-23 17:21:00,
2013-02-23 12:32:00,81.0,68.0,-100.00,SSW,208,11.0,-999.0,62,0.00,,,-99.99,557.900024,,2013-02-23 17:32:00,
2013-02-23 12:42:00,82.0,68.0,-100.00,SW,217,9.0,-999.0,63,0.00,,,-99.99,556.799988,,2013-02-23 17:42:00,
2013-02-23 12:52:00,82.0,68.0,-100.00,SW,217,9.0,-999.0,63,0.00,,,-99.99,556.799988,,2013-02-23 17:52:00,
2013-02-23 13:01:00,84.0,67.0,-100.00,SSW,212,11.0,-999.0,57,0.00,,,-99.99,847.000000,,2013-02-23 18:01:00,
2013-02-23 13:12:00,83.0,67.0,-100.00,SW,218,10.0,-999.0,58,0.00,,,-99.99,476.000000,,2013-02-23 18:12:00,
2013-02-23 13:22:00,83.0,67.0,-100.00,SW,218,10.0,-999.0,58,0.00,,,-99.99,476.000000,,2013-02-23 18:22:00,
2013-02-23 13:32:00,83.0,67.0,-100.00,SW,218,10.0,-999.0,58,0.00,,,-99.99,476.000000,,2013-02-23 18:32:00,
2013-02-23 13:42:00,84.0,66.0,-100.00,SW,234,12.0,-999.0,54,0.00,,,-99.99,608.400024,,2013-02-23 18:42:00,
2013-02-23 13:52:00,84.0,66.0,-100.00,SW,234,12.0,-999.0,54,0.00,,,-99.99,608.400024,,2013-02-23 18:52:00,
2013-02-23 14:01:00,84.0,66.0,-100.00,WSW,245,8.0,-999.0,54,0.00,,,-99.99,506.000000,,2013-02-23 19:01:00,
2013-02-23 14:11:00,85.0,65.0,-100.00,SW,223,9.0,-999.0,51,0.00,,,-99.99,502.299988,,2013-02-23 19:11:00,
2013-02-23 14:21:00,85.0,65.0,-100.00,SW,223,9.0,-999.0,51,0.00,,,-99.99,502.299988,,2013-02-23 19:21:00,
2013-02-23 14:32:00,86.0,66.0,-100.00,SW,233,10.0,-999.0,51,0.00,,,-99.99,673.599976,,2013-02-23 19:32:00,
2013-02-23 14:42:00,85.0,65.0,-100.00,WSW,238,11.0,-999.0,51,0.00,,,-99.99,452.899994,,2013-02-23 19:42:00,
2013-02-23 14:52:00,85.0,65.0,-100.00,WSW,238,11.0,-999.0,51,0.00,,,-99.99,452.899994,,2013-02-23 19:52:00,
2013-02-23 15:01:00,86.0,65.0,-100.00,SW,231,10.0,-999.0,49,0.00,,,-99.99,487.200012,,2013-02-23 20:01:00,
2013-02-23 15:11:00,84.0,64.0,-100.00,WSW,238,8.0,-999.0,51,0.00,,,-99.99,310.600006,,2013-02-23 20:11:00,
2013-02-23 15:21:00,84.0,64.0,-100.00,WSW,238,8.0,-999.0,51,0.00,,,-99.99,310.600006,,2013-02-23 20:21:00,
2013-02-23 15:32:00,86.0,65.0,-100.00,SW,221,11.0,-999.0,49,0.00,,,-99.99,476.299988,,2013-02-23 20:32:00,
2013-02-23 15:42:00,85.0,65.0,-100.00,SW,226,10.0,-999.0,51,0.00,,,-99.99,412.000000,,2013-02-23 20:42:00,
2013-02-23 15:53:00,85.0,65.0,-100.00,SW,226,10.0,-999.0,51,0.00,,,-99.99,412.000000,,2013-02-23 20:53:00,
2013-02-23 16:01:00,86.0,65.0,-100.00,SW,234,11.0,-999.0,50,0.00,,,-99.99,519.700012,,2013-02-23 21:01:00,
2013-02-23 16:11:00,86.0,65.0,-100.00,SW,234,11.0,-999.0,50,0.00,,,-99.99,519.700012,,2013-02-23 21:11:00,
2013-02-23 16:22:00,85.0,65.0,-100.00,SW,234,10.0,-999.0,52,0.00,,,-99.99,359.500000,,2013-02-23 21:22:00,
2013-02-23 16:32:00,85.0,66.0,-100.00,SW,236,11.0,-999.0,52,0.00,,,-99.99,287.299988,,2013-02-23 21:32:00,
2013-02-23 16:42:00,85.0,65.0,-100.00,SW,229,12.0,-999.0,51,0.00,,,-99.99,353.700012,,2013-02-23 21:42:00,
2013-02-23 16:52:00,85.0,65.0,-100.00,SW,229,12.0,-999.0,51,0.00,,,-99.99,353.700012,,2013-02-23 21:52:00,
2013-02-23 17:02:00,84.0,65.0,-100.00,SW,233,11.0,-999.0,52,0.00,,,-99.99,279.600006,,2013-02-23 22:02:00,
2013-02-23 17:11:00,84.0,66.0,-100.00,WSW,238,10.0,-999.0,55,0.00,,,-99.99,242.100006,,2013-02-23 22:11:00,
2013-02-23 17:22:00,84.0,66.0,-100.00,WSW,238,10.0,-999.0,55,0.00,,,-99.99,242.100006,,2013-02-23 22:22:00,
2013-02-23 17:32:00,83.0,65.0,-100.00,SW,236,12.0,-999.0,54,0.00,,,-99.99,197.899994,,2013-02-23 22:32:00,
2013-02-23 17:42:00,83.0,64.0,-100.00,WSW,245,12.0,-999.0,53,0.00,,,-99.99,142.100006,,2013-02-23 22:42:00,
2013-02-23 17:52:00,83.0,64.0,-100.00,WSW,245,12.0,-999.0,53,0.00,,,-99.99,142.100006,,2013-02-23 22:52:00,
2013-02-23 18:01:00,81.0,65.0,-100.00,WSW,243,10.0,-999.0,58,0.00,,,-99.99,67.400002,,2013-02-23 23:01:00,
2013-02-23 18:11:00,80.0,67.0,-100.00,WSW,239,8.0,-999.0,63,0.00,,,-99.99,39.099998,,2013-02-23 23:11:00,
2013-02-23 18:21:00,80.0,67.0,-100.00,WSW,239,8.0,-999.0,63,0.00,,,-99.99,39.099998,,2013-02-23 23:21:00,
2013-02-23 18:31:00,79.0,67.0,-100.00,SW,230,8.0,-999.0,66,0.00,,,-99.99,13.300000,,2013-02-23 23:31:00,
2013-02-23 18:42:00,78.0,67.0,-100.00,SW,229,6.0,-999.0,69,0.00,,,-99.99,3.700000,,2013-02-23 23:42:00,
2013-02-23 18:52:00,78.0,67.0,-100.00,SW,229,6.0,-999.0,69,0.00,,,-99.99,3.700000,,2013-02-23 23:52:00,
2013-02-23 19:01:00,77.0,67.0,-100.00,SW,228,7.0,-999.0,71,0.00,,,-99.99,0.400000,,2013-02-24 00:01:00,
2013-02-23 19:11:00,76.0,68.0,-100.00,SW,235,6.0,-999.0,74,0.00,,,-99.99,0.000000,,2013-02-24 00:11:00,
2013-02-23 19:22:00,76.0,68.0,-100.00,SW,235,6.0,-999.0,74,0.00,,,-99.99,0.000000,,2013-02-24 00:22:00,
2013-02-23 19:32:00,76.0,68.0,-100.00,SW,236,5.0,-999.0,77,0.00,,,-99.99,0.000000,,2013-02-24 00:32:00,
2013-02-23 19:42:00,75.0,68.0,-100.00,SW,234,5.0,-999.0,80,0.00,,,-99.99,0.000000,,2013-02-24 00:42:00,
2013-02-23 19:52:00,75.0,68.0,-100.00,SW,234,5.0,-999.0,80,0.00,,,-99.99,0.000000,,2013-02-24 00:52:00,
2013-02-23 20:01:00,74.0,68.0,-100.00,SW,236,6.0,-999.0,82,0.00,,,-99.99,0.000000,,2013-02-24 01:01:00,
2013-02-23 20:11:00,74.0,68.0,-100.00,SW,229,5.0,-999.0,84,0.00,,,-99.99,0.000000,,2013-02-24 01:11:00,
2013-02-23 20:22:00,74.0,68.0,-100.00,SW,229,5.0,-999.0,84,0.00,,,-99.99,0.000000,,2013-02-24 01:22:00,
2013-02-23 20:31:00,73.0,69.0,-100.00,SW,229,6.0,-999.0,86,0.00,,,-99.99,0.000000,,2013-02-24 01:31:00,
2013-02-23 20:42:00,73.0,69.0,-100.00,SW,233,6.0,-999.0,87,0.00,,,-99.99,0.000000,,2013-02-24 01:42:00,
2013-02-23 20:52:00,73.0,69.0,-100.00,SW,233,6.0,-999.0,87,0.00,,,-99.99,0.000000,,2013-02-24 01:52:00,
2013-02-23 21:01:00,72.0,69.0,-100.00,SW,234,5.0,-999.0,89,0.00,,,-99.99,0.000000,,2013-02-24 02:01:00,
2013-02-23 21:11:00,72.0,69.0,-100.00,SW,228,5.0,-999.0,90,0.00,,,-99.99,0.000000,,2013-02-24 02:11:00,
2013-02-23 21:22:00,72.0,69.0,-100.00,SW,228,5.0,-999.0,90,0.00,,,-99.99,0.000000,,2013-02-24 02:22:00,
2013-02-23 21:32:00,72.0,69.0,-100.00,SW,227,5.0,-999.0,91,0.00,,,-99.99,0.000000,,2013-02-24 02:32:00,
2013-02-23 21:42:00,72.0,69.0,-100.00,SW,227,5.0,-999.0,91,0.00,,,-99.99,0.000000,,2013-02-24 02:42:00,
2013-02-23 21:52:00,71.0,69.0,-100.00,SW,233,5.0,-999.0,92,0.00,,,-99.99,0.000000,,2013-02-24 02:52:00,
2013-02-23 22:02:00,71.0,69.0,-100.00,SW,234,4.0,-999.0,93,0.00,,,-99.99,0.000000,,2013-02-24 03:02:00,
2013-02-23 22:11:00,70.0,68.0,-100.00,SW,236,4.0,-999.0,94,0.00,,,-99.99,0.000000,,2013-02-24 03:11:00,
2013-02-23 22:22:00,70.0,68.0,-100.00,SW,236,4.0,-999.0,94,0.00,,,-99.99,0.000000,,2013-02-24 03:22:00,
2013-02-23 22:32:00,70.0,68.0,-100.00,WSW,240,4.0,-999.0,94,0.00,,,-99.99,0.000000,,2013-02-24 03:32:00,
2013-02-23 22:42:00,70.0,68.0,-100.00,WSW,246,4.0,-999.0,95,0.00,,,-99.99,0.000000,,2013-02-24 03:42:00,
2013-02-23 22:52:00,70.0,68.0,-100.00,WSW,246,4.0,-999.0,95,0.00,,,-99.99,0.000000,,2013-02-24 03:52:00,
2013-02-23 23:01:00,69.0,68.0,-100.00,WSW,246,4.0,-999.0,95,0.00,,,-99.99,0.000000,,2013-02-24 04:01:00,
2013-02-23 23:11:00,69.0,68.0,-100.00,WSW,247,4.0,-999.0,95,0.00,,,-99.99,0.000000,,2013-02-24 04:11:00,
2013-02-23 23:21:00,69.0,68.0,-100.00,WSW,247,4.0,-999.0,95,0.00,,,-99.99,0.000000,,2013-02-24 04:21:00,
2013-02-23 23:32:00,70.0,69.0,-100.00,WSW,242,5.0,-999.0,96,0.00,,,-99.99,0.000000,,2013-02-24 04:32:00,
2013-02-23 23:42:00,69.0,68.0,-100.00,SW,234,7.0,-999.0,96,0.00,,,-99.99,0.000000,,2013-02-24 04:42:00,
2013-02-23 23:52:00,69.0,68.0,-100.00,SW,234,7.0,-999.0,96,0.00,,,-99.99,0.000000,,2013-02-24 04:52:00,